| time (UTC) | temp F | wind direction | speed MPH | gust MPH | rain 1hr in | rain 24hr in | rain mn in | humidity % | barometer mb |
| 20260906075543 | 69 | 33 | 4.0 | 13.0 | 0.00 | 0.00 | 0.00 | 43 | 1023.2 |
| 20260906075043 | 69 | 46 | 7.0 | 13.0 | 0.00 | 0.00 | 0.00 | 44 | 1023.3 |
| 20260906074554 | 69 | 27 | 6.0 | 10.0 | 0.00 | 0.00 | 0.00 | 44 | 1023.2 |
| 20260906074043 | 69 | 30 | 4.0 | 9.0 | 0.00 | 0.00 | 0.00 | 44 | 1023.3 |
| 20260906073546 | 69 | 21 | 5.0 | 9.0 | 0.00 | 0.00 | 0.00 | 44 | 1023.4 |
| 20260906073053 | 69 | 48 | 4.0 | 7.0 | 0.00 | 0.00 | 0.00 | 44 | 1023.4 |
| 20260906072543 | 69 | 51 | 3.0 | 7.0 | 0.00 | 0.00 | 0.00 | 44 | 1023.4 |
| 20260906072043 | 69 | 59 | 4.0 | 6.0 | 0.00 | 0.00 | 0.00 | 44 | 1023.5 |
| 20260906071553 | 69 | 63 | 3.0 | 7.0 | 0.00 | 0.00 | 0.00 | 44 | 1023.5 |
| 20260906071043 | 69 | 52 | 3.0 | 7.0 | 0.00 | 0.00 | 0.00 | 44 | 1023.5 |
| 20260906070543 | 69 | 56 | 3.0 | 7.0 | 0.00 | 0.00 | 0.00 | 44 | 1023.5 |
| 20260906070052 | 69 | 53 | 3.0 | 5.0 | 0.00 | 0.00 | 0.00 | 44 | 1023.5 |
| 20260906065543 | 69 | 46 | 3.0 | 8.0 | 0.00 | 0.00 | 0.00 | 44 | 1023.6 |
| 20260906065044 | 69 | 61 | 4.0 | 8.0 | 0.00 | 0.00 | 0.00 | 44 | 1023.6 |
| 20260906064549 | 69 | 50 | 3.0 | 6.0 | 0.00 | 0.00 | 0.00 | 44 | 1023.6 |
| 20260906064043 | 68 | 78 | 4.0 | 6.0 | 0.00 | 0.00 | 0.00 | 44 | 1023.6 |
| 20260906063542 | 68 | 72 | 3.0 | 6.0 | 0.00 | 0.00 | 0.00 | 44 | 1023.6 |
| 20260906063057 | 68 | 63 | 3.0 | 7.0 | 0.00 | 0.00 | 0.00 | 44 | 1023.6 |
| 20260906062542 | 69 | 80 | 4.0 | 7.0 | 0.00 | 0.00 | 0.00 | 45 | 1023.7 |
| 20260906062043 | 69 | 95 | 2.0 | 6.0 | 0.00 | 0.00 | 0.00 | 45 | 1023.6 |
| 20260906061607 | 69 | 49 | 3.0 | 5.0 | 0.00 | 0.00 | 0.00 | 44 | 1023.6 |
| 20260906061042 | 68 | 60 | 3.0 | 6.0 | 0.00 | 0.00 | 0.00 | 45 | 1023.5 |
| 20260906060545 | 68 | 74 | 3.0 | 7.0 | 0.00 | 0.00 | 0.00 | 45 | 1023.7 |
| 20260906060103 | 69 | 92 | 3.0 | 8.0 | 0.00 | 0.00 | 0.00 | 45 | 1023.6 |
| 20260906055543 | 69 | 69 | 4.0 | 8.0 | 0.00 | 0.00 | 0.00 | 46 | 1023.5 |
| 20260906055043 | 69 | 89 | 5.0 | 8.0 | 0.00 | 0.00 | 0.00 | 46 | 1023.5 |
| 20260906054605 | 69 | 65 | 5.0 | 8.0 | 0.00 | 0.00 | 0.00 | 47 | 1023.5 |
| 20260906054043 | 69 | 96 | 3.0 | 7.0 | 0.00 | 0.00 | 0.00 | 46 | 1023.2 |
| 20260906053542 | 69 | 94 | 1.0 | 6.0 | 0.00 | 0.00 | 0.00 | 46 | 1023.2 |
| 20260906053119 | 70 | 97 | 2.0 | 6.0 | 0.00 | 0.00 | 0.00 | 46 | 1023.3 |
| 20260906052544 | 70 | 97 | 1.0 | 6.0 | 0.00 | 0.00 | 0.00 | 46 | 1023.2 |
| 20260906052043 | 70 | 96 | 2.0 | 6.0 | 0.00 | 0.00 | 0.00 | 46 | 1023.2 |
| 20260906051551 | 70 | 98 | 2.0 | 5.0 | 0.00 | 0.00 | 0.00 | 46 | 1023.2 |
| 20260906051042 | 70 | 101 | 1.0 | 4.0 | 0.00 | 0.00 | 0.00 | 46 | 1023.4 |
| 20260906050543 | 70 | 105 | 2.0 | 4.0 | 0.00 | 0.00 | 0.00 | 46 | 1023.3 |
| 20260906050049 | 70 | 98 | 1.0 | 3.0 | 0.00 | 0.00 | 0.00 | 46 | 1023.4 |
| 20260906045546 | 70 | 86 | 1.0 | 5.0 | 0.00 | 0.00 | 0.00 | 46 | 1023.4 |
| 20260906045043 | 71 | 105 | 1.0 | 5.0 | 0.00 | 0.00 | 0.00 | 46 | 1023.4 |
| 20260906044555 | 71 | 130 | 1.0 | 7.0 | 0.00 | 0.00 | 0.00 | 47 | 1023.4 |
| 20260906044043 | 71 | 136 | 1.0 | 7.0 | 0.00 | 0.00 | 0.00 | 46 | 1023.4 |
| 20260906043543 | 71 | 135 | 2.0 | 8.0 | 0.00 | 0.00 | 0.00 | 46 | 1023.4 |
| 20260906043103 | 71 | 144 | 3.0 | 8.0 | 0.00 | 0.00 | 0.00 | 46 | 1023.4 |
| 20260906042543 | 72 | 138 | 3.0 | 8.0 | 0.00 | 0.00 | 0.00 | 46 | 1023.4 |
| 20260906042043 | 72 | 142 | 3.0 | 6.0 | 0.00 | 0.00 | 0.00 | 45 | 1023.4 |
| 20260906041555 | 72 | 107 | 2.0 | 7.0 | 0.00 | 0.00 | 0.00 | 45 | 1023.5 |
| 20260906041044 | 72 | 134 | 2.0 | 7.0 | 0.00 | 0.00 | 0.00 | 45 | 1023.5 |
| 20260906040542 | 73 | 131 | 3.0 | 7.0 | 0.00 | 0.00 | 0.00 | 44 | 1023.5 |
| 20260906035543 | 73 | 129 | 4.0 | 9.0 | 0.00 | 0.00 | 0.00 | 40 | 1023.4 |
| 20260906035043 | 73 | 157 | 5.0 | 9.0 | 0.00 | 0.00 | 0.00 | 40 | 1023.3 |
| 20260906034557 | 73 | 163 | 3.0 | 6.0 | 0.00 | 0.00 | 0.00 | 38 | 1023.2 |
| 20260906034043 | 73 | 138 | 1.0 | 6.0 | 0.00 | 0.00 | 0.00 | 38 | 1023.1 |
| 20260906033543 | 73 | 0 | 1.0 | 10.0 | 0.00 | 0.00 | 0.00 | 38 | 1023.1 |
| 20260906033104 | 73 | 163 | 1.0 | 10.0 | 0.00 | 0.00 | 0.00 | 37 | 1023.0 |
| 20260906032542 | 73 | 220 | 3.0 | 8.0 | 0.00 | 0.00 | 0.00 | 38 | 1023.0 |
| 20260906032043 | 73 | 255 | 3.0 | 12.0 | 0.00 | 0.00 | 0.00 | 38 | 1023.1 |
| 20260906031601 | 73 | 157 | 5.0 | 12.0 | 0.00 | 0.00 | 0.00 | 37 | 1023.1 |
| 20260906031043 | 74 | 121 | 4.0 | 8.0 | 0.00 | 0.00 | 0.00 | 36 | 1022.9 |
| 20260906030544 | 74 | 131 | 3.0 | 7.0 | 0.00 | 0.00 | 0.00 | 36 | 1022.7 |
| 20260906030101 | 74 | 142 | 2.0 | 6.0 | 0.00 | 0.00 | 0.00 | 35 | 1022.7 |
| 20260906025543 | 75 | 130 | 2.0 | 7.0 | 0.00 | 0.00 | 0.00 | 35 | 1022.6 |
| 20260906025043 | 75 | 136 | 3.0 | 7.0 | 0.00 | 0.00 | 0.00 | 35 | 1022.4 |
| 20260906024621 | 75 | 134 | 3.0 | 7.0 | 0.00 | 0.00 | 0.00 | 34 | 1022.3 |
| 20260906024043 | 76 | 140 | 2.0 | 5.0 | 0.00 | 0.00 | 0.00 | 34 | 1022.2 |
| 20260906023543 | 76 | 128 | 2.0 | 7.0 | 0.00 | 0.00 | 0.00 | 34 | 1022.2 |
| 20260906023106 | 76 | 175 | 2.0 | 7.0 | 0.00 | 0.00 | 0.00 | 33 | 1022.2 |
| 20260906022542 | 77 | 138 | 2.0 | 6.0 | 0.00 | 0.00 | 0.00 | 33 | 1022.2 |
| 20260906022045 | 77 | 143 | 1.0 | 6.0 | 0.00 | 0.00 | 0.00 | 33 | 1022.1 |
| 20260906021559 | 77 | 156 | 3.0 | 6.0 | 0.00 | 0.00 | 0.00 | 32 | 1022.0 |
| 20260906021043 | 78 | 162 | 2.0 | 6.0 | 0.00 | 0.00 | 0.00 | 32 | 1022.0 |
| 20260906020543 | 78 | 136 | 2.0 | 7.0 | 0.00 | 0.00 | 0.00 | 32 | 1021.9 |
| 20260906020105 | 78 | 151 | 2.0 | 11.0 | 0.00 | 0.00 | 0.00 | 31 | 1021.8 |
| 20260906015543 | 79 | 165 | 4.0 | 12.0 | 0.00 | 0.00 | 0.00 | 31 | 1021.8 |
| 20260906015043 | 79 | 171 | 4.0 | 12.0 | 0.00 | 0.00 | 0.00 | 30 | 1021.7 |
| 20260906014555 | 80 | 180 | 3.0 | 10.0 | 0.00 | 0.00 | 0.00 | 30 | 1021.7 |
| 20260906014043 | 80 | 195 | 4.0 | 11.0 | 0.00 | 0.00 | 0.00 | 30 | 1021.7 |
| 20260906013543 | 80 | 166 | 6.0 | 11.0 | 0.00 | 0.00 | 0.00 | 29 | 1021.7 |
| 20260906013053 | 81 | 178 | 4.0 | 10.0 | 0.00 | 0.00 | 0.00 | 29 | 1021.7 |
| 20260906012542 | 81 | 169 | 4.0 | 10.0 | 0.00 | 0.00 | 0.00 | 29 | 1021.7 |
| 20260906012043 | 82 | 197 | 5.0 | 11.0 | 0.00 | 0.00 | 0.00 | 28 | 1021.7 |
| 20260906011559 | 82 | 196 | 5.0 | 12.0 | 0.00 | 0.00 | 0.00 | 28 | 1021.7 |
| 20260906011044 | 83 | 244 | 6.0 | 12.0 | 0.00 | 0.00 | 0.00 | 28 | 1021.8 |
| 20260906010542 | 83 | 219 | 6.0 | 13.0 | 0.00 | 0.00 | 0.00 | 27 | 1021.7 |
| 20260906010130 | 84 | 219 | 5.0 | 13.0 | 0.00 | 0.00 | 0.00 | 27 | 1021.7 |
| 20260906005542 | 85 | 217 | 4.0 | 12.0 | 0.00 | 0.00 | 0.00 | 26 | 1021.7 |
| 20260906005043 | 85 | 235 | 4.0 | 11.0 | 0.00 | 0.00 | 0.00 | 26 | 1021.7 |
| 20260906004552 | 86 | 227 | 3.0 | 10.0 | 0.00 | 0.00 | 0.00 | 26 | 1021.7 |
| 20260906004042 | 86 | 235 | 5.0 | 12.0 | 0.00 | 0.00 | 0.00 | 26 | 1021.7 |
| 20260906003543 | 86 | 251 | 7.0 | 13.0 | 0.00 | 0.00 | 0.00 | 25 | 1021.8 |
| 20260906003050 | 87 | 260 | 7.0 | 13.0 | 0.00 | 0.00 | 0.00 | 25 | 1021.7 |
| 20260906002543 | 87 | 205 | 4.0 | 11.0 | 0.00 | 0.00 | 0.00 | 25 | 1021.6 |
| 20260906002043 | 87 | 218 | 3.0 | 8.0 | 0.00 | 0.00 | 0.00 | 26 | 1021.7 |
| 20260906001602 | 87 | 0 | 2.0 | 8.0 | 0.00 | 0.00 | 0.00 | 27 | 1021.7 |
| 20260906001043 | 86 | 288 | 2.0 | 7.0 | 0.00 | 0.00 | 0.00 | 29 | 1021.8 |
| 20260906000543 | 86 | 313 | 3.0 | 8.0 | 0.00 | 0.00 | 0.00 | 30 | 1021.7 |
| 20260906000057 | 85 | 320 | 1.0 | 9.0 | 0.00 | 0.00 | 0.00 | 30 | 1021.7 |
| 20260905235543 | 85 | 330 | 4.0 | 9.0 | 0.00 | 0.00 | 0.00 | 30 | 1021.6 |
| 20260905235043 | 85 | 352 | 2.0 | 8.0 | 0.00 | 0.00 | 0.00 | 30 | 1021.5 |
| 20260905234555 | 85 | 0 | 2.0 | 8.0 | 0.00 | 0.00 | 0.00 | 29 | 1021.6 |
| 20260905234042 | 85 | 352 | 3.0 | 8.0 | 0.00 | 0.00 | 0.00 | 30 | 1021.6 |
| 20260905233543 | 85 | 308 | 4.0 | 9.0 | 0.00 | 0.00 | 0.00 | 30 | 1021.7 |
| 20260905233101 | 86 | 15 | 4.0 | 10.0 | 0.00 | 0.00 | 0.00 | 30 | 1021.6 |
| 20260905232547 | 87 | 15 | 5.0 | 10.0 | 0.00 | 0.00 | 0.00 | 29 | 1021.7 |
| 20260905232042 | 88 | 320 | 5.0 | 17.0 | 0.00 | 0.00 | 0.00 | 28 | 1021.7 |
| 20260905231559 | 90 | 316 | 6.0 | 17.0 | 0.00 | 0.00 | 0.00 | 26 | 1021.7 |
| 20260905231042 | 92 | 321 | 10.0 | 17.0 | 0.00 | 0.00 | 0.00 | 26 | 1021.6 |
| 20260905230547 | 94 | 86 | 5.0 | 11.0 | 0.00 | 0.00 | 0.00 | 24 | 1021.2 |
| 20260905230107 | 94 | 219 | 2.0 | 8.0 | 0.00 | 0.00 | 0.00 | 23 | 1021.6 |
| 20260905225542 | 93 | 0 | 3.0 | 12.0 | 0.00 | 0.00 | 0.00 | 23 | 1021.7 |
| 20260905225042 | 93 | 186 | 4.0 | 15.0 | 0.00 | 0.00 | 0.00 | 23 | 1021.7 |
| 20260905224603 | 93 | 315 | 7.0 | 15.0 | 0.00 | 0.00 | 0.00 | 23 | 1021.7 |
| 20260905224042 | 93 | 267 | 4.0 | 12.0 | 0.00 | 0.00 | 0.00 | 23 | 1021.6 |
| 20260905223542 | 93 | 292 | 6.0 | 13.0 | 0.00 | 0.00 | 0.00 | 23 | 1021.7 |
| 20260905223100 | 93 | 217 | 4.0 | 13.0 | 0.00 | 0.00 | 0.00 | 23 | 1021.7 |
| 20260905222543 | 93 | 284 | 5.0 | 13.0 | 0.00 | 0.00 | 0.00 | 23 | 1021.7 |
| 20260905222043 | 93 | 261 | 5.0 | 13.0 | 0.00 | 0.00 | 0.00 | 24 | 1021.7 |
| 20260905221559 | 93 | 284 | 4.0 | 13.0 | 0.00 | 0.00 | 0.00 | 23 | 1021.9 |
| 20260905221046 | 93 | 289 | 0.0 | 8.0 | 0.00 | 0.00 | 0.00 | 23 | 1021.9 |
| 20260905220542 | 93 | 148 | 1.0 | 11.0 | 0.00 | 0.00 | 0.00 | 23 | 1021.9 |
| 20260905220054 | 92 | 225 | 4.0 | 12.0 | 0.00 | 0.00 | 0.00 | 24 | 1021.9 |
| 20260905215546 | 92 | 265 | 6.0 | 12.0 | 0.00 | 0.00 | 0.00 | 24 | 1022.0 |
| 20260905215045 | 92 | 281 | 4.0 | 11.0 | 0.00 | 0.00 | 0.00 | 24 | 1022.0 |
| 20260905214600 | 92 | 312 | 3.0 | 14.0 | 0.00 | 0.00 | 0.00 | 25 | 1022.0 |
| 20260905214046 | 92 | 212 | 3.0 | 14.0 | 0.00 | 0.00 | 0.00 | 24 | 1022.1 |
| 20260905213542 | 92 | 236 | 8.0 | 14.0 | 0.00 | 0.00 | 0.00 | 24 | 1022.2 |
| 20260905213101 | 92 | 290 | 9.0 | 14.0 | 0.00 | 0.00 | 0.00 | 25 | 1022.3 |
| 20260905212543 | 93 | 263 | 1.0 | 14.0 | 0.00 | 0.00 | 0.00 | 24 | 1022.3 |
| 20260905212040 | 92 | 190 | 7.0 | 14.0 | 0.00 | 0.00 | 0.00 | 24 | 1022.4 |
| 20260905211553 | 92 | 242 | 7.0 | 13.0 | 0.00 | 0.00 | 0.00 | 25 | 1022.4 |
| 20260905211042 | 92 | 257 | 5.0 | 11.0 | 0.00 | 0.00 | 0.00 | 24 | 1022.4 |
| 20260905210542 | 92 | 200 | 5.0 | 11.0 | 0.00 | 0.00 | 0.00 | 25 | 1022.5 |
| 20260905210105 | 91 | 311 | 2.0 | 9.0 | 0.00 | 0.00 | 0.00 | 26 | 1022.6 |
| 20260905205541 | 91 | 239 | 3.0 | 12.0 | 0.00 | 0.00 | 0.00 | 26 | 1022.6 |
| 20260905205041 | 91 | 242 | 4.0 | 14.0 | 0.00 | 0.00 | 0.00 | 26 | 1022.7 |
| 20260905204607 | 91 | 248 | 7.0 | 15.0 | 0.00 | 0.00 | 0.00 | 26 | 1022.8 |
| 20260905204041 | 92 | 228 | 9.0 | 18.0 | 0.00 | 0.00 | 0.00 | 25 | 1022.7 |
| 20260905203541 | 92 | 287 | 9.0 | 18.0 | 0.00 | 0.00 | 0.00 | 26 | 1022.7 |
| 20260905203103 | 92 | 150 | 4.0 | 12.0 | 0.00 | 0.00 | 0.00 | 26 | 1022.9 |
| 20260905202541 | 91 | 296 | 4.0 | 12.0 | 0.00 | 0.00 | 0.00 | 27 | 1022.9 |
| 20260905202042 | 91 | 311 | 7.0 | 11.0 | 0.00 | 0.00 | 0.00 | 27 | 1023.0 |
| 20260905201603 | 91 | 298 | 3.0 | 9.0 | 0.00 | 0.00 | 0.00 | 27 | 1023.0 |
| 20260905201041 | 90 | 256 | 2.0 | 11.0 | 0.00 | 0.00 | 0.00 | 27 | 1023.1 |
| 20260905200542 | 90 | 240 | 4.0 | 12.0 | 0.00 | 0.00 | 0.00 | 27 | 1023.1 |
| 20260905200055 | 90 | 186 | 5.0 | 12.0 | 0.00 | 0.00 | 0.00 | 27 | 1023.2 |
| 20260905195542 | 90 | 167 | 4.0 | 11.0 | 0.00 | 0.00 | 0.00 | 28 | 1023.1 |
| 20260905195043 | 90 | 292 | 3.0 | 11.0 | 0.00 | 0.00 | 0.00 | 28 | 1023.2 |
| 20260905194558 | 90 | 329 | 5.0 | 13.0 | 0.00 | 0.00 | 0.00 | 28 | 1023.2 |
| 20260905194041 | 90 | 290 | 3.0 | 13.0 | 0.00 | 0.00 | 0.00 | 28 | 1023.4 |
| 20260905193545 | 91 | 257 | 4.0 | 12.0 | 0.00 | 0.00 | 0.00 | 27 | 1023.4 |
| 20260905193054 | 90 | 261 | 5.0 | 10.0 | 0.00 | 0.00 | 0.00 | 28 | 1023.4 |
| 20260905192542 | 90 | 157 | 4.0 | 9.0 | 0.00 | 0.00 | 0.00 | 28 | 1023.4 |
| 20260905192042 | 89 | 264 | 2.0 | 10.0 | 0.00 | 0.00 | 0.00 | 28 | 1023.5 |
| 20260905191552 | 89 | 0 | 2.0 | 10.0 | 0.00 | 0.00 | 0.00 | 29 | 1023.6 |
| 20260905191041 | 88 | 283 | 4.0 | 10.0 | 0.00 | 0.00 | 0.00 | 29 | 1023.7 |
| 20260905190541 | 87 | 257 | 3.0 | 11.0 | 0.00 | 0.00 | 0.00 | 29 | 1023.7 |
| 20260905190052 | 87 | 279 | 4.0 | 11.0 | 0.00 | 0.00 | 0.00 | 29 | 1023.9 |
| 20260905185541 | 87 | 268 | 4.0 | 11.0 | 0.00 | 0.00 | 0.00 | 30 | 1024.0 |
| 20260905185041 | 86 | 140 | 2.0 | 10.0 | 0.00 | 0.00 | 0.00 | 31 | 1024.0 |
| 20260905184612 | 86 | 291 | 5.0 | 10.0 | 0.00 | 0.00 | 0.00 | 31 | 1024.1 |
| 20260905184041 | 85 | 292 | 6.0 | 10.0 | 0.00 | 0.00 | 0.00 | 32 | 1024.1 |
| 20260905183541 | 84 | 233 | 4.0 | 10.0 | 0.00 | 0.00 | 0.00 | 32 | 1024.1 |
| 20260905183110 | 84 | 305 | 4.0 | 13.0 | 0.00 | 0.00 | 0.00 | 34 | 1024.2 |
| 20260905182542 | 83 | 295 | 5.0 | 15.0 | 0.00 | 0.00 | 0.00 | 33 | 1024.2 |
| 20260905182045 | 83 | 319 | 5.0 | 15.0 | 0.00 | 0.00 | 0.00 | 34 | 1024.3 |
| 20260905181552 | 83 | 326 | 5.0 | 15.0 | 0.00 | 0.00 | 0.00 | 35 | 1024.4 |
| 20260905181041 | 82 | 323 | 6.0 | 12.0 | 0.00 | 0.00 | 0.00 | 36 | 1024.5 |
| 20260905180542 | 81 | 352 | 4.0 | 12.0 | 0.00 | 0.00 | 0.00 | 37 | 1024.5 |
| 20260905180105 | 81 | 333 | 3.0 | 15.0 | 0.00 | 0.00 | 0.00 | 37 | 1024.7 |
| 20260905175542 | 81 | 328 | 5.0 | 15.0 | 0.00 | 0.00 | 0.00 | 37 | 1024.8 |
| 20260905175040 | 80 | 323 | 8.0 | 15.0 | 0.00 | 0.00 | 0.00 | 37 | 1024.8 |
| 20260905174555 | 80 | 33 | 3.0 | 12.0 | 0.00 | 0.00 | 0.00 | 39 | 1024.9 |
| 20260905174042 | 80 | 352 | 7.0 | 13.0 | 0.00 | 0.00 | 0.00 | 39 | 1024.9 |
| 20260905173541 | 80 | 360 | 4.0 | 13.0 | 0.00 | 0.00 | 0.00 | 39 | 1024.9 |
| 20260905173051 | 80 | 323 | 4.0 | 10.0 | 0.00 | 0.00 | 0.00 | 40 | 1024.9 |
| 20260905172542 | 79 | 309 | 5.0 | 14.0 | 0.00 | 0.00 | 0.00 | 40 | 1024.9 |
| 20260905172042 | 79 | 317 | 5.0 | 14.0 | 0.00 | 0.00 | 0.00 | 41 | 1024.9 |
| 20260905171603 | 79 | 319 | 5.0 | 14.0 | 0.00 | 0.00 | 0.00 | 41 | 1025.0 |
| 20260905171041 | 78 | 315 | 4.0 | 14.0 | 0.00 | 0.00 | 0.00 | 43 | 1025.1 |
| 20260905170541 | 77 | 302 | 7.0 | 14.0 | 0.00 | 0.00 | 0.00 | 43 | 1024.9 |
| 20260905170109 | 77 | 37 | 6.0 | 13.0 | 0.00 | 0.00 | 0.00 | 45 | 1024.8 |
| 20260905165544 | 76 | 355 | 6.0 | 15.0 | 0.00 | 0.00 | 0.00 | 45 | 1024.9 |
| 20260905165042 | 76 | 325 | 8.0 | 15.0 | 0.00 | 0.00 | 0.00 | 45 | 1025.0 |
| 20260905164604 | 76 | 360 | 6.0 | 13.0 | 0.00 | 0.00 | 0.00 | 46 | 1024.9 |
| 20260905164041 | 75 | 334 | 7.0 | 13.0 | 0.00 | 0.00 | 0.00 | 46 | 1025.0 |
| 20260905163542 | 75 | 355 | 8.0 | 13.0 | 0.00 | 0.00 | 0.00 | 46 | 1025.0 |
| 20260905163054 | 75 | 338 | 7.0 | 16.0 | 0.00 | 0.00 | 0.00 | 47 | 1025.0 |
| 20260905162542 | 75 | 345 | 8.0 | 16.0 | 0.00 | 0.00 | 0.00 | 47 | 1025.0 |
| 20260905162041 | 74 | 317 | 9.0 | 16.0 | 0.00 | 0.00 | 0.00 | 46 | 1025.0 |
| 20260905161551 | 74 | 284 | 9.0 | 16.0 | 0.00 | 0.00 | 0.00 | 47 | 1025.0 |
| 20260905161042 | 74 | 315 | 9.0 | 13.0 | 0.00 | 0.00 | 0.00 | 48 | 1024.9 |
| 20260905160542 | 73 | 352 | 7.0 | 13.0 | 0.00 | 0.00 | 0.00 | 49 | 1024.9 |
| 20260905160049 | 73 | 340 | 8.0 | 13.0 | 0.00 | 0.00 | 0.00 | 50 | 1024.9 |
| 20260905155541 | 73 | 317 | 6.0 | 11.0 | 0.00 | 0.00 | 0.00 | 51 | 1024.9 |
| 20260905155041 | 72 | 330 | 6.0 | 11.0 | 0.00 | 0.00 | 0.00 | 53 | 1024.9 |
| 20260905154555 | 72 | 360 | 6.0 | 12.0 | 0.00 | 0.00 | 0.00 | 54 | 1024.9 |
| 20260905154042 | 71 | 5 | 6.0 | 12.0 | 0.00 | 0.00 | 0.00 | 55 | 1024.9 |
| 20260905153542 | 71 | 319 | 7.0 | 12.0 | 0.00 | 0.00 | 0.00 | 56 | 1024.8 |
| 20260905153054 | 71 | 348 | 8.0 | 12.0 | 0.00 | 0.00 | 0.00 | 56 | 1024.8 |
| 20260905152542 | 71 | 350 | 7.0 | 12.0 | 0.00 | 0.00 | 0.00 | 57 | 1024.9 |
| 20260905152046 | 70 | 19 | 7.0 | 13.0 | 0.00 | 0.00 | 0.00 | 58 | 1024.9 |
| 20260905151607 | 70 | 5 | 9.0 | 13.0 | 0.00 | 0.00 | 0.00 | 59 | 1024.8 |
| 20260905151041 | 70 | 336 | 6.0 | 13.0 | 0.00 | 0.00 | 0.00 | 60 | 1024.8 |
| 20260905150541 | 69 | 355 | 6.0 | 13.0 | 0.00 | 0.00 | 0.00 | 60 | 1024.8 |
| 20260905150100 | 69 | 329 | 6.0 | 13.0 | 0.00 | 0.00 | 0.00 | 61 | 1024.9 |
| 20260905145541 | 68 | 340 | 8.0 | 13.0 | 0.00 | 0.00 | 0.00 | 62 | 1024.8 |
| 20260905145042 | 68 | 329 | 6.0 | 11.0 | 0.00 | 0.00 | 0.00 | 63 | 1024.8 |
| 20260905144554 | 67 | 331 | 7.0 | 11.0 | 0.00 | 0.00 | 0.00 | 64 | 1025.0 |
| 20260905144041 | 67 | 34 | 5.0 | 10.0 | 0.00 | 0.00 | 0.00 | 65 | 1025.0 |
| 20260905143545 | 67 | 334 | 5.0 | 10.0 | 0.00 | 0.00 | 0.00 | 66 | 1025.1 |
| 20260905143053 | 66 | 335 | 3.0 | 8.0 | 0.00 | 0.00 | 0.00 | 67 | 1025.1 |
| 20260905142545 | 66 | 336 | 4.0 | 8.0 | 0.00 | 0.00 | 0.00 | 68 | 1024.9 |
| 20260905142041 | 65 | 44 | 3.0 | 6.0 | 0.00 | 0.00 | 0.00 | 69 | 1024.9 |
| 20260905141603 | 65 | 67 | 3.0 | 10.0 | 0.00 | 0.00 | 0.00 | 70 | 1024.9 |
| 20260905141041 | 65 | 33 | 5.0 | 10.0 | 0.00 | 0.00 | 0.00 | 71 | 1024.9 |
| 20260905140542 | 64 | 43 | 6.0 | 10.0 | 0.00 | 0.00 | 0.00 | 72 | 1024.8 |
| 20260905140126 | 63 | 22 | 5.0 | 10.0 | 0.00 | 0.00 | 0.00 | 73 | 1024.8 |
| 20260905135542 | 63 | 44 | 6.0 | 9.0 | 0.00 | 0.00 | 0.00 | 74 | 1024.7 |
| 20260905135042 | 62 | 34 | 3.0 | 9.0 | 0.00 | 0.00 | 0.00 | 75 | 1024.7 |
| 20260905134601 | 62 | 51 | 5.0 | 11.0 | 0.00 | 0.00 | 0.00 | 76 | 1024.6 |
| 20260905134045 | 62 | 66 | 4.0 | 11.0 | 0.00 | 0.00 | 0.00 | 76 | 1024.6 |
| 20260905133541 | 61 | 41 | 4.0 | 9.0 | 0.00 | 0.00 | 0.00 | 77 | 1024.4 |
| 20260905133101 | 61 | 31 | 5.0 | 9.0 | 0.00 | 0.00 | 0.00 | 78 | 1024.5 |
| 20260905132541 | 61 | 46 | 4.0 | 9.0 | 0.00 | 0.00 | 0.00 | 78 | 1024.4 |
| 20260905132042 | 60 | 30 | 4.0 | 8.0 | 0.00 | 0.00 | 0.00 | 79 | 1024.4 |
| 20260905131601 | 60 | 23 | 3.0 | 7.0 | 0.00 | 0.00 | 0.00 | 79 | 1024.4 |
| 20260905131042 | 60 | 13 | 3.0 | 5.0 | 0.00 | 0.00 | 0.00 | 79 | 1024.4 |
| 20260905130544 | 60 | 340 | 2.0 | 5.0 | 0.00 | 0.00 | 0.00 | 79 | 1024.3 |
| 20260905130101 | 60 | 5 | 3.0 | 8.0 | 0.00 | 0.00 | 0.00 | 79 | 1024.2 |
| 20260905125541 | 60 | 5 | 3.0 | 8.0 | 0.00 | 0.01 | 0.00 | 78 | 1024.2 |
| 20260905125041 | 60 | 15 | 4.0 | 9.0 | 0.00 | 0.01 | 0.00 | 78 | 1024.0 |
| 20260905124552 | 60 | 344 | 5.0 | 9.0 | 0.00 | 0.01 | 0.00 | 77 | 1023.9 |
| 20260905124042 | 60 | 351 | 5.0 | 8.0 | 0.00 | 0.01 | 0.00 | 76 | 1024.0 |
| 20260905123542 | 61 | 351 | 4.0 | 6.0 | 0.00 | 0.01 | 0.00 | 74 | 1023.8 |
| 20260905123103 | 61 | 340 | 3.0 | 5.0 | 0.00 | 0.01 | 0.00 | 73 | 1023.8 |
| 20260905122542 | 61 | 38 | 3.0 | 5.0 | 0.00 | 0.01 | 0.00 | 72 | 1023.7 |
| 20260905122042 | 61 | 360 | 3.0 | 5.0 | 0.00 | 0.01 | 0.00 | 72 | 1023.6 |
| 20260905121551 | 62 | 360 | 3.0 | 7.0 | 0.00 | 0.01 | 0.00 | 71 | 1023.7 |
| 20260905121042 | 62 | 341 | 3.0 | 8.0 | 0.00 | 0.01 | 0.00 | 70 | 1023.7 |
| 20260905120543 | 62 | 28 | 5.0 | 8.0 | 0.00 | 0.01 | 0.00 | 71 | 1023.5 |
| 20260905120100 | 62 | 38 | 4.0 | 7.0 | 0.00 | 0.01 | 0.00 | 72 | 1023.5 |
| 20260905115544 | 62 | 65 | 4.0 | 7.0 | 0.00 | 0.01 | 0.00 | 72 | 1023.6 |
| 20260905115044 | 61 | 42 | 4.0 | 7.0 | 0.00 | 0.01 | 0.00 | 72 | 1023.7 |
| 20260905114548 | 61 | 67 | 3.0 | 8.0 | 0.00 | 0.01 | 0.00 | 73 | 1023.7 |
| 20260905114042 | 62 | 52 | 3.0 | 8.0 | 0.00 | 0.01 | 0.00 | 73 | 1023.7 |
| 20260905113542 | 62 | 57 | 3.0 | 6.0 | 0.00 | 0.01 | 0.00 | 73 | 1023.6 |
| 20260905113102 | 62 | 63 | 3.0 | 5.0 | 0.00 | 0.01 | 0.00 | 74 | 1023.6 |
| 20260905112542 | 62 | 57 | 2.0 | 5.0 | 0.00 | 0.01 | 0.00 | 75 | 1023.6 |
| 20260905112041 | 62 | 57 | 4.0 | 5.0 | 0.00 | 0.01 | 0.00 | 75 | 1023.7 |
| 20260905111554 | 62 | 49 | 3.0 | 6.0 | 0.00 | 0.01 | 0.00 | 74 | 1023.7 |
| 20260905111042 | 62 | 49 | 3.0 | 6.0 | 0.00 | 0.01 | 0.00 | 74 | 1023.7 |
| 20260905110541 | 63 | 37 | 4.0 | 7.0 | 0.00 | 0.01 | 0.00 | 73 | 1023.7 |
| 20260905110051 | 63 | 33 | 4.0 | 8.0 | 0.00 | 0.01 | 0.00 | 73 | 1023.7 |
| 20260905105541 | 63 | 38 | 3.0 | 8.0 | 0.00 | 0.01 | 0.00 | 71 | 1023.6 |
| 20260905105042 | 63 | 34 | 3.0 | 7.0 | 0.00 | 0.01 | 0.00 | 70 | 1023.7 |
| 20260905104606 | 63 | 43 | 3.0 | 8.0 | 0.00 | 0.01 | 0.00 | 70 | 1023.6 |
| 20260905104042 | 63 | 5 | 4.0 | 8.0 | 0.00 | 0.01 | 0.00 | 70 | 1023.6 |
| 20260905103542 | 63 | 17 | 3.0 | 5.0 | 0.00 | 0.01 | 0.00 | 69 | 1023.6 |
| 20260905103055 | 63 | 28 | 3.0 | 5.0 | 0.00 | 0.01 | 0.00 | 69 | 1023.7 |
| 20260905102542 | 63 | 28 | 3.0 | 6.0 | 0.00 | 0.01 | 0.00 | 69 | 1023.6 |
| 20260905102042 | 63 | 9 | 3.0 | 6.0 | 0.00 | 0.01 | 0.00 | 69 | 1023.6 |
| 20260905101554 | 62 | 43 | 3.0 | 5.0 | 0.00 | 0.01 | 0.00 | 70 | 1023.5 |
| 20260905101041 | 62 | 25 | 2.0 | 5.0 | 0.00 | 0.01 | 0.00 | 70 | 1023.6 |
| 20260905100541 | 62 | 58 | 2.0 | 5.0 | 0.00 | 0.01 | 0.00 | 70 | 1023.5 |
| 20260905100052 | 62 | 58 | 2.0 | 5.0 | 0.00 | 0.01 | 0.00 | 70 | 1023.5 |
| 20260905095541 | 62 | 58 | 2.0 | 4.0 | 0.00 | 0.01 | 0.00 | 70 | 1023.3 |
| 20260905095041 | 62 | 58 | 2.0 | 4.0 | 0.00 | 0.01 | 0.00 | 69 | 1023.3 |
| 20260905094557 | 62 | 59 | 2.0 | 4.0 | 0.00 | 0.01 | 0.00 | 69 | 1023.3 |
| 20260905094042 | 62 | 58 | 2.0 | 4.0 | 0.00 | 0.01 | 0.00 | 69 | 1023.4 |
| 20260905093542 | 62 | 58 | 2.0 | 6.0 | 0.00 | 0.01 | 0.00 | 69 | 1023.4 |
| 20260905093055 | 62 | 58 | 2.0 | 6.0 | 0.00 | 0.01 | 0.00 | 68 | 1023.4 |
| 20260905092543 | 62 | 50 | 3.0 | 6.0 | 0.00 | 0.01 | 0.00 | 68 | 1023.4 |
| 20260905092041 | 62 | 22 | 3.0 | 4.0 | 0.00 | 0.01 | 0.00 | 67 | 1023.4 |
| 20260905091551 | 62 | 66 | 2.0 | 4.0 | 0.00 | 0.01 | 0.00 | 65 | 1023.5 |
| 20260905091042 | 63 | 66 | 2.0 | 5.0 | 0.00 | 0.01 | 0.00 | 65 | 1023.6 |
| 20260905090541 | 63 | 66 | 2.0 | 5.0 | 0.00 | 0.01 | 0.00 | 65 | 1023.5 |
| 20260905090118 | 63 | 59 | 3.0 | 5.0 | 0.00 | 0.01 | 0.00 | 66 | 1023.5 |
| 20260905085545 | 63 | 42 | 3.0 | 5.0 | 0.00 | 0.01 | 0.00 | 66 | 1023.4 |
| 20260905085046 | 63 | 45 | 3.0 | 5.0 | 0.00 | 0.01 | 0.00 | 66 | 1023.4 |
| 20260905084613 | 62 | 27 | 3.0 | 6.0 | 0.00 | 0.01 | 0.00 | 66 | 1023.4 |
| 20260905084042 | 62 | 41 | 3.0 | 6.0 | 0.00 | 0.01 | 0.00 | 66 | 1023.3 |
| 20260905083542 | 62 | 98 | 1.0 | 4.0 | 0.00 | 0.01 | 0.00 | 66 | 1023.4 |
| 20260905083056 | 62 | 98 | 2.0 | 4.0 | 0.00 | 0.01 | 0.00 | 66 | 1023.3 |
| 20260905082542 | 62 | 98 | 2.0 | 4.0 | 0.00 | 0.01 | 0.00 | 66 | 1023.4 |
| 20260905082042 | 62 | 98 | 1.0 | 2.0 | 0.00 | 0.01 | 0.00 | 66 | 1023.5 |
| 20260905081549 | 62 | 98 | 1.0 | 3.0 | 0.00 | 0.01 | 0.00 | 66 | 1023.4 |
| 20260905081041 | 62 | 98 | 0.0 | 3.0 | 0.00 | 0.01 | 0.00 | 66 | 1023.5 |
| 20260905080541 | 62 | 98 | 1.0 | 2.0 | 0.00 | 0.01 | 0.00 | 66 | 1023.5 |
| 20260905080100 | 62 | 98 | 0.0 | 2.0 | 0.00 | 0.01 | 0.00 | 66 | 1023.5 |